Location: Pl�tzky
(52.0521°N, 11.8020°E)
Time: 03:35:37
(UTC+00:00)

ERBS - Pass Details

Date: 22 November 2019
Orbit: 411 x 430 km, 57.0° (Epoch: 14 December)

Event Time Altitude Azimuth Distance (km) Brightness Sun altitude
Rises 17:57:39 0° 280° (W) 2,355 7.4 -24.7°
Reaches altitude 10° 17:59:52 10° 290° (WNW) 1,496 5.9 -25.1°
Enters shadow 18:01:35 24° 312° (NW) 921 4.4 -25.3°
